Location: Hokitika
(42.7170°S, 170.9670°E)
Time: 02:38:44
(UTC+12:00)

Cosmos 2263 Rocket - Pass Details

Date: 24 January 2019
Orbit: 825 x 847 km, 71.0° (Epoch: 17 April)

Event Time Altitude Azimuth Distance (km) Brightness Sun altitude
Rises 23:20:57 0° 215° (SW) 3,417 7.0 -19.4°
Reaches altitude 10° 23:23:43 10° 226° (SW) 2,478 5.8 -19.7°
Maximum altitude 23:28:26 28° 283° (WNW) 1,555 3.8 -20.2°
Enters shadow 23:32:12 14° 333° (NNW) 2,182 4.1 -20.6°
